Borger, TX

3:53 PM CDT on April 28, 2017 (GMT -0500)
Hutchinson County

Weather History for KBGD - May, 2013

Change the Weather History Date:

Sunday, May 19, 2013

  Actual Average Record
Temperature  
Mean Temperature 76 °F 69 °F  
Max Temperature 88 °F 82 °F 101 °F (2014)
Min Temperature 64 °F 56 °F 38 °F (1971)
Degree Days  
Heating Degree Days 0 1  
Month to date heating degree days 78 52  
Since 1 July heating degree days 3591 3755  
Cooling Degree Days 11 5  
Month to date cooling degree days 106 72  
Year to date cooling degree days 152 116  
Growing Degree Days 25 (Base 50)    
Moisture  
Dew Point 36 °F    
Average Humidity 34    
Maximum Humidity 58    
Minimum Humidity 10    
Precipitation  
Precipitation 0.00 in 0.10 in 1.93 in (1955)
Month to date precipitation 0.77 1.40  
Year to date precipitation 4.16 5.56  
Snow  
Snow 0.00 in - T in (1982)
Month to date snowfall T  
Since 1 July snowfall 27.5  
Snow Depth 0.00 in    
Sea Level Pressure  
Sea Level Pressure 29.58 in    
Wind  
Wind Speed 8 mph (West)    
Max Wind Speed 25 mph    
Max Gust Speed 41 mph    
Visibility 10 miles    
Events      
T = Trace of Precipitation, MM = Missing Value Source: NWS Daily Summary

Daily Weather History Graph

Daily Weather History Graph

Search for Another Location

Airport or City:

Trip Planner

Search our weather history database for the weather conditions in past years. The results will help you decide how hot, cold, wet, or windy it might be!

Date:

Astronomy

May. 19, 2013 Rise Set
Actual Time 6:37 AM CDT 8:47 PM CDT
Civil Twilight 6:08 AM CDT 9:15 PM CDT
Nautical Twilight 5:33 AM CDT 9:51 PM CDT
Astronomical Twilight 4:55 AM CDT 10:29 PM CDT
Moon 3:04 PM CDT (5/19) 2:49 AM CDT (5/19)
Length of Visible Light 15h 07m
Length of Day
14h 09m
Waxing Gibbous, 65% of the Moon is Illuminated
May 19
Waxing Gibbous
May 24
Full
May 31
Last Quarter
Jun 8
New
Jun 16
First Quarter

Hourly Weather History & Observations

Time (CDT) Temp. Dew Point Humidity Pressure Visibility Wind Dir Wind Speed Gust Speed Precip Events Conditions
12:51 AM 73.9 °F 44.1 °F 34% 29.57 in 10.0 mi Calm Calm - N/A   Clear
1:51 AM 70.0 °F 51.1 °F 51% 29.57 in 10.0 mi South 6.9 mph - N/A   Clear
3:51 AM 66.0 °F 37.0 °F 34% 29.55 in 10.0 mi WSW 9.2 mph - N/A   Clear
4:51 AM 68.0 °F 27.0 °F 21% 29.55 in 10.0 mi WSW 6.9 mph - N/A   Clear
5:51 AM 68.0 °F 26.1 °F 21% 29.56 in 10.0 mi West 6.9 mph - N/A   Clear
6:51 AM 64.9 °F 26.1 °F 23% 29.58 in 10.0 mi West 5.8 mph - N/A   Clear
7:51 AM 66.0 °F 28.0 °F 24% 29.59 in 10.0 mi WSW 8.1 mph - N/A   Clear
8:51 AM 72.0 °F 37.9 °F 29% 29.60 in 10.0 mi NW 10.4 mph 17.3 mph N/A   Clear
9:51 AM 71.1 °F 51.1 °F 49% 29.63 in 10.0 mi NNW 8.1 mph - N/A   Clear
10:51 AM 73.0 °F 46.9 °F 39% 29.62 in 10.0 mi WNW 6.9 mph 17.3 mph N/A   Clear
11:51 AM 77.0 °F 45.0 °F 32% 29.61 in 10.0 mi NW 5.8 mph 16.1 mph N/A   Clear
12:51 PM 80.1 °F 42.1 °F 26% 29.61 in 10.0 mi West 9.2 mph 20.7 mph N/A   Clear
1:51 PM 82.0 °F 39.9 °F 22% 29.59 in 10.0 mi Variable 6.9 mph 24.2 mph N/A   Partly Cloudy
2:51 PM 84.0 °F 37.9 °F 19% 29.58 in 10.0 mi WSW 9.2 mph 20.7 mph N/A   Clear
3:51 PM 84.9 °F 32.0 °F 15% 29.57 in 10.0 mi West 8.1 mph 21.9 mph N/A   Partly Cloudy
4:51 PM 86.0 °F 32.0 °F 14% 29.55 in 10.0 mi West 13.8 mph 21.9 mph N/A   Partly Cloudy
5:51 PM 86.0 °F 27.0 °F 12% 29.53 in 10.0 mi SW 11.5 mph 25.3 mph N/A   Clear
6:51 PM 84.9 °F 24.1 °F 11% 29.52 in 10.0 mi SW 4.6 mph - N/A   Clear
7:51 PM 84.9 °F 21.0 °F 10% 29.52 in 10.0 mi WSW 10.4 mph 27.6 mph N/A   Partly Cloudy
8:51 PM 79.0 °F 34.0 °F 20% 29.57 in 10.0 mi NNE 17.3 mph - N/A   Clear
9:51 PM 75.9 °F 35.1 °F 23% 29.60 in 10.0 mi ENE 6.9 mph - N/A   Clear
10:51 PM 72.0 °F 36.0 °F 27% 29.64 in 10.0 mi NNE 4.6 mph - N/A   Clear
11:51 PM 71.1 °F 37.0 °F 29% 29.63 in 10.0 mi East 4.6 mph - N/A   Clear